Location: Muenchen
(48.1800°N, 11.5800°E)
Time: 14:51:26
(UTC+02:00)

Cosmos 1455 - Visible Passes

Search period start: 05 July 2015 00:00
Search period end: 15 July 2015 00:00
Orbit: 510 x 534 km, 82.5° (Epoch: 05 July)

Date Brightness Start Highest point End Pass type
(mag) Time Alt. Az. Time Alt. Az. Time Alt. Az.
05 Jul 2.5 22:01:46 10° N 22:05:36 55° ENE 22:09:23 10° SSE visible
05 Jul 4.9 23:39:05 10° NW 23:41:02 13° W 23:42:49 10° WSW visible
06 Jul 4.8 23:25:42 10° NW 23:27:59 15° W 23:30:10 10° WSW visible
07 Jul 4.8 23:12:22 10° NW 23:14:57 17° W 23:17:24 10° SW visible
08 Jul 4.6 22:59:05 10° NW 23:01:54 19° W 23:04:36 10° SW visible
09 Jul 4.5 22:45:49 10° NW 22:48:50 21° W 22:51:45 10° SW visible
10 Jul 4.3 22:32:35 10° NW 22:35:46 24° W 22:38:51 10° SW visible
11 Jul 4.2 22:19:21 10° NNW 22:22:41 27° W 22:25:57 10° SSW visible
12 Jul 4.0 22:06:09 10° NNW 22:09:37 31° W 22:12:59 10° SSW visible
13 Jul 3.8 21:52:57 10° NNW 21:56:31 35° W 22:00:01 10° SSW visible
